This is the latest recevied weather packets stored in our database for station/object HA5KNF-10. If no packets are shown the sender has not sent any weather packets the latest 10 day(s).
| Time | Temp. | Humidity | Pressure | Rain* | Wind** | Luminosity | Snow |
|---|---|---|---|---|---|---|---|
| 1788193358 | 27.78° C | 37% | 999.4 hPa | - | - | - | - |
| 1788182738 | 27.22° C | 38% | 999.3 hPa | - | - | - | - |
| 1788175657 | 26.11° C | 41% | 1000.2 hPa | - | - | - | - |
| 1788172117 | 25° C | 43% | 1001 hPa | - | - | - | - |
| 1788168577 | 24.44° C | 44% | 1001.4 hPa | - | - | - | - |
| 1788165037 | 23.33° C | 40% | 1001.7 hPa | - | - | - | - |
| 1788161497 | 22.78° C | 40% | 1001.9 hPa | - | - | - | - |
| 1788157957 | 22.22° C | 39% | 1001.9 hPa | - | - | - | - |
| 1788154417 | 22.78° C | 39% | 1002.2 hPa | - | - | - | - |
| 1788150876 | 22.78° C | 39% | 1002 hPa | - | - | - | - |
| 1788147336 | 22.78° C | 38% | 1001.9 hPa | - | - | - | - |
| 1788143796 | 23.33° C | 38% | 1002 hPa | - | - | - | - |
| 1788140256 | 23.89° C | 38% | 1002 hPa | - | - | - | - |
| 1788136716 | 23.89° C | 38% | 1002.2 hPa | - | - | - | - |
| 1788133176 | 24.44° C | 38% | 1002.2 hPa | - | - | - | - |
| 1788129636 | 24.44° C | 37% | 1002.4 hPa | - | - | - | - |
| 1788126096 | 25° C | 37% | 1002.4 hPa | - | - | - | - |
| 1788122555 | 25° C | 37% | 1002.2 hPa | - | - | - | - |
| 1788119015 | 25.56° C | 37% | 1002.1 hPa | - | - | - | - |
| 1788115475 | 26.11° C | 36% | 1001.8 hPa | - | - | - | - |
| 1788111935 | 26.67° C | 36% | 1001.1 hPa | - | - | - | - |
| 1788108395 | 27.22° C | 35% | 1000.8 hPa | - | - | - | - |
| 1788101315 | 27.78° C | 37% | 1001.1 hPa | - | - | - | - |
| 1788097774 | 27.22° C | 39% | 1001.4 hPa | - | - | - | - |
| 1788094234 | 26.67° C | 39% | 1002 hPa | - | - | - | - |
* Rain since midnight (hover to see other rain measurements)
** Current wind speed in m/s (hover to see current wind gust speed)